Theta_e
329 328 329 330 331 333 339 342 346 345 345 350 349 347 344 347 347 347 347 348 348 347 347 346 345 344 346 344 342 342 345 348 349 347 346 347 347 346 346 344 344 343 343 345
325 327 329 331 332 334 339 340 344 344 346 348 351 348 339 339 344 348 348 348 348 348 347 348 346 348 348 348 344 346 346 348 349 349 346 348 347 347 348 348 345 347 343 344
324 326 329 331 332 334 339 342 341 342 343 346 346 347 345 341 341 341 347 348 348 348 348 347 349 349 349 346 348 348 349 349 350 351 351 350 347 344 346 348 343 339 336 340
324 326 328 328 330 332 332 340 341 343 341 350 345 347 343 341 342 341 344 348 348 348 348 347 348 348 349 342 345 350 349 350 351 352 346 341 343 338 343 339 341 338 339 343
321 327 326 327 328 331 332 334 340 343 343 337 348 343 343 342 342 349 345 346 347 347 348 348 348 348 348 347 345 350 351 352 351 351 348 344 346 341 345 343 342 340 342 342
320 324 326 326 328 329 331 332 332 331 332 333 332 339 340 344 343 348 344 346 347 347 348 348 348 348 348 348 347 344 352 343 351 352 350 347 344 346 346 344 344 344 343 343
318 320 321 324 323 323 326 326 329 333 332 332 333 340 336 340 345 342 340 340 342 347 349 349 348 348 348 348 351 347 346 350 352 351 349 350 345 346 344 342 341 342 346 344
317 318 321 323 323 323 323 324 327 334 334 332 340 341 341 342 342 342 342 340 342 346 348 349 348 348 348 349 353 350 349 352 353 353 353 346 344 341 341 344 345 345 345 346
316 317 319 322 323 324 322 325 325 325 325 328 340 341 336 340 341 343 343 341 344 346 347 349 350 349 346 350 352 353 355 357 356 355 349 347 346 344 345 346 346 346 346 345
317 318 320 321 324 322 322 323 325 320 328 329 329 342 339 342 343 343 341 343 341 345 345 345 349 348 349 351 355 358 358 355 355 353 349 348 345 345 346 345 344 342 342 338
315 316 320 319 319 320 319 323 321 319 321 323 325 326 334 339 340 341 336 341 344 343 346 347 350 352 354 355 357 357 354 351 350 349 347 346 344 344 342 340 339 336 330 323
317 314 316 320 319 320 321 321 321 321 322 320 320 322 337 338 339 339 337 338 345 345 349 349 350 350 355 356 356 356 353 351 348 347 345 344 344 341 337 335 330 324 320 318
319 315 318 318 317 319 323 322 319 317 316 320 321 322 339 337 336 338 339 348 347 351 350 350 348 351 355 356 356 353 351 350 347 345 344 343 339 336 333 328 324 319 317 318
323 314 316 318 317 320 323 321 322 320 318 320 320 328 346 340 338 338 345 353 354 354 353 352 352 355 356 356 353 351 351 348 345 344 344 340 336 333 329 326 320 316 315 312
318 320 319 318 317 322 323 323 322 323 320 323 323 337 344 341 339 338 348 356 356 355 356 355 355 355 355 353 352 351 349 346 344 344 339 336 333 330 328 324 316 313 311 307
323 322 320 322 320 321 323 322 322 321 323 321 324 337 339 342 338 342 355 356 355 354 355 354 355 354 353 353 351 347 344 345 343 339 336 334 332 329 326 318 313 309 309 308
326 327 327 322 320 322 321 323 324 323 323 325 325 322 334 337 338 339 350 355 355 355 355 354 354 354 353 353 350 345 344 343 340 339 336 335 329 322 316 314 310 309 309 309
326 327 325 323 320 324 320 321 323 324 325 328 327 322 334 338 338 339 343 355 355 355 355 355 355 354 354 350 346 344 343 342 339 337 336 330 321 316 314 311 310 310 309 310
323 327 328 328 329 327 330 329 333 331 328 339 339 337 338 338 338 340 342 353 355 355 354 355 355 354 352 348 345 345 343 341 338 337 331 325 317 315 311 311 311 311 316 318
324 327 332 327 330 331 331 334 338 332 332 339 339 342 350 342 342 340 341 344 355 354 354 353 353 352 349 347 346 345 342 339 338 333 327 320 316 313 311 311 312 316 318 319
324 327 328 330 333 330 335 335 338 339 342 338 337 345 344 348 343 342 344 351 354 353 351 350 350 349 348 347 346 344 342 340 335 329 322 317 317 313 312 313 312 318 320 319
331 330 328 330 332 333 333 334 340 337 335 338 339 342 349 349 347 351 352 353 352 353 352 349 343 349 347 346 344 343 342 338 331 324 320 317 318 315 314 313 314 316 318 318
336 332 333 334 336 332 334 336 336 333 334 337 340 344 346 342 345 349 353 353 352 352 343 338 340 348 346 345 345 342 338 332 327 323 319 317 318 314 312 312 314 318 320 321
331 332 331 331 330 330 334 333 333 332 333 337 340 347 351 349 345 350 351 351 351 345 339 343 347 347 346 345 344 340 337 331 326 323 317 316 315 315 315 316 319 320 321 319
327 334 332 331 331 330 334 331 332 333 332 332 335 339 349 350 349 349 349 347 341 337 338 346 348 347 346 343 341 338 333 330 326 321 313 313 317 319 316 318 320 319 318 314
328 327 332 332 331 331 331 333 333 333 333 332 333 334 339 339 343 348 342 339 337 339 346 344 345 347 343 342 339 336 333 329 324 316 312 313 316 313 318 319 318 318 316 316
Wind_Speed
9 0 7 12 7 7 7 6 5 7 9 6 11 7 6 5 15 20 25 27 26 23 31 29 28 29 22 25 29 25 23 18 17 11 6 8 11 10 8 9 8 4 6 7
5 6 12 6 8 5 8 2 7 4 12 6 8 11 5 7 9 25 28 29 30 23 31 29 36 31 26 24 30 26 23 21 17 10 5 5 9 8 4 3 4 2 5 7
8 8 4 7 13 7 6 5 7 9 11 7 11 6 6 6 19 18 11 21 30 30 37 31 36 35 27 19 26 28 26 23 17 16 9 8 6 5 5 6 6 4 3 6
7 10 11 14 12 4 7 18 9 13 6 7 11 5 7 9 10 9 16 13 19 27 38 37 37 35 35 22 19 27 25 24 22 19 15 22 12 8 9 10 10 3 4 5
10 5 9 7 13 3 14 4 15 17 18 4 13 2 7 2 5 11 16 20 25 27 42 43 40 36 37 33 9 25 27 23 23 23 17 10 11 13 14 14 13 8 9 8
10 10 4 9 16 8 12 5 4 4 5 2 6 5 5 6 10 6 10 25 31 25 40 47 37 36 34 31 18 22 32 23 24 20 15 15 8 13 14 12 14 12 14 13
7 10 5 5 8 7 5 6 3 4 4 6 3 4 8 9 6 13 17 28 35 33 36 41 42 39 37 29 23 19 25 29 24 19 17 18 15 13 14 15 17 14 10 11
7 10 4 5 8 9 5 8 5 6 4 6 2 5 6 4 8 10 23 28 28 35 32 38 44 39 34 30 25 23 25 25 21 21 21 17 17 15 14 15 14 13 12 11
6 7 8 5 5 7 11 3 8 7 1 4 2 5 10 3 5 13 16 25 33 36 28 31 37 39 31 30 27 25 23 19 16 19 19 17 17 14 13 13 12 12 11 11
9 8 15 14 3 5 7 4 1 3 3 3 4 5 5 5 12 9 8 20 23 30 19 30 36 35 33 28 26 23 19 15 16 18 15 14 15 14 14 13 13 12 11 11
8 7 13 4 6 9 6 4 4 6 5 6 3 6 8 15 18 11 11 23 28 30 27 37 43 35 30 29 26 23 17 11 13 11 11 10 11 12 12 10 9 9 8 8
14 7 7 16 10 5 6 10 8 6 8 3 6 7 5 20 17 14 17 7 15 37 37 41 45 38 33 31 27 23 17 14 14 15 13 12 12 11 9 7 6 6 6 4
2 1 5 11 7 5 4 5 6 5 4 6 6 6 1 4 6 9 8 12 26 34 37 42 43 41 40 34 29 23 17 18 17 16 15 14 12 10 8 6 6 5 3 1
12 4 6 8 9 4 4 8 5 4 5 5 7 4 4 5 12 7 11 28 34 38 46 45 44 47 41 34 29 25 19 20 21 19 16 16 14 11 8 6 6 4 4 3
4 3 5 7 8 5 3 5 9 4 6 6 10 10 10 15 18 16 22 31 33 37 42 48 52 47 39 33 29 24 20 24 23 20 21 17 13 10 9 7 5 5 6 6
6 4 7 5 8 4 3 5 7 6 5 5 4 7 9 27 22 25 32 37 38 43 43 45 50 45 40 34 29 25 26 26 22 21 18 15 13 12 10 7 7 8 9 9
4 6 8 6 5 7 5 4 4 5 5 5 4 10 7 6 15 26 34 43 38 38 42 48 48 44 40 35 31 28 28 25 23 23 21 17 15 12 10 9 10 9 9 9
2 3 1 5 5 2 9 5 7 7 5 6 6 8 13 19 39 44 41 39 41 43 47 52 48 44 38 34 31 28 28 25 25 24 20 15 13 12 12 11 10 10 10 11
5 5 3 1 1 6 6 4 3 1 3 12 13 13 8 23 17 12 29 39 52 56 51 49 48 43 39 35 31 29 28 26 24 21 17 13 12 13 14 14 11 11 11 11
4 7 5 3 1 5 3 15 24 4 4 20 20 14 5 18 5 6 35 38 41 39 44 44 43 40 40 35 30 29 29 26 23 20 15 12 12 13 15 14 13 12 10 7
5 3 8 6 4 4 12 19 18 7 6 26 27 24 8 6 3 20 30 24 30 30 32 31 29 29 31 30 28 29 29 26 22 17 14 13 13 14 14 12 11 12 10 9
1 3 3 3 4 5 22 9 7 4 15 19 23 21 15 30 5 23 37 35 37 38 38 28 9 23 25 26 28 28 27 24 21 16 13 14 14 14 13 12 14 15 11 9
3 4 3 2 4 3 7 3 2 10 13 23 23 10 3 5 22 39 41 40 43 40 28 36 39 41 33 31 27 27 25 23 20 15 14 15 14 14 11 12 15 15 10 6
3 3 3 3 2 4 7 14 9 13 18 21 16 13 10 16 27 33 38 35 32 29 32 38 43 42 41 37 30 23 22 21 18 16 16 18 18 18 15 17 13 11 8 5
5 1 2 5 8 8 7 19 20 24 17 18 15 11 11 17 27 30 37 41 31 34 40 41 49 43 42 39 30 24 22 19 19 17 18 20 20 15 17 18 13 10 7 7
12 6 4 5 4 4 9 18 21 18 30 25 17 9 7 19 15 24 27 32 28 38 43 46 45 41 41 34 29 25 21 20 20 21 22 22 19 18 21 17 13 11 10 9
Wind_Direction
294 160 243 256 184 198 198 188 178 132 207 143 196 191 301 339 198 188 199 202 205 205 187 207 202 201 198 203 207 210 203 209 212 207 217 207 231 230 228 259 269 321 319 285
345 233 244 258 253 220 217 237 191 287 157 148 179 237 259 266 252 208 196 202 191 184 187 198 196 205 205 210 202 206 209 209 214 218 219 244 231 228 209 227 243 302 333 306
199 241 301 246 269 249 250 218 167 212 162 210 118 306 292 282 224 242 202 208 202 194 184 192 197 206 203 208 206 205 208 218 214 209 203 206 218 203 240 210 211 181 295 272
231 254 252 269 266 184 198 226 233 210 164 196 206 225 228 217 243 247 236 194 220 204 197 197 197 202 196 193 194 206 211 215 207 213 231 230 210 230 216 215 210 200 277 247
238 233 261 266 257 222 252 232 223 207 206 148 204 163 274 182 221 213 201 206 213 211 205 201 199 208 208 207 198 201 204 207 213 223 221 221 219 196 221 205 208 233 253 255
236 253 222 240 265 247 267 290 28 66 138 50 198 147 259 208 205 167 195 184 193 206 201 204 205 207 209 211 212 203 204 223 212 221 219 217 215 216 215 197 209 233 240 258
304 273 275 239 293 309 85 62 333 338 354 225 190 115 229 219 198 163 190 188 187 188 189 199 200 198 212 205 201 195 191 193 207 215 212 214 222 201 196 208 218 242 247 235
194 282 238 243 190 227 266 159 155 202 213 253 135 245 262 259 153 188 222 214 176 174 184 199 200 203 203 190 192 194 192 199 200 205 208 207 207 206 219 220 223 230 243 255
177 264 278 268 253 127 281 233 188 115 70 80 224 294 309 58 296 254 224 199 173 173 174 197 194 194 194 193 193 197 194 197 207 204 201 209 218 217 209 210 222 228 238 260
225 249 263 273 280 291 164 208 273 11 169 279 294 293 237 208 238 239 227 234 179 179 195 196 195 197 198 200 192 191 193 195 202 203 212 221 219 208 211 215 220 233 252 265
171 172 262 32 175 236 323 306 63 122 140 167 193 254 221 200 216 218 220 203 205 195 192 185 181 186 189 185 183 184 188 203 200 200 211 218 204 205 216 212 226 238 251 264
207 170 218 246 233 226 208 230 190 151 259 227 160 262 223 208 208 194 239 237 209 193 180 179 182 185 183 182 183 191 199 203 198 203 207 207 213 207 212 231 243 263 271 271
196 200 234 292 323 357 226 237 200 127 89 198 155 252 297 160 247 213 203 181 165 165 166 178 182 186 189 188 191 193 198 202 199 199 200 210 212 224 239 245 267 273 267 218
338 119 156 216 214 187 301 320 280 148 137 205 217 213 227 215 239 162 171 160 160 167 172 179 183 185 185 189 188 188 195 195 190 192 209 210 216 223 240 259 271 239 204 185
60 263 189 216 205 203 174 293 314 213 222 169 239 192 201 201 213 175 181 166 165 168 174 182 183 184 182 185 185 187 196 185 190 201 200 204 216 229 242 243 214 172 154 133
355 309 336 301 308 51 336 315 300 264 264 249 176 229 208 210 161 170 173 171 177 175 176 177 182 183 183 183 182 184 180 182 197 199 196 204 220 235 242 221 186 162 148 138
30 12 342 279 310 6 336 224 256 271 264 226 286 235 154 159 186 187 181 181 180 174 176 179 185 185 183 183 185 182 181 189 197 200 203 213 220 222 209 197 175 163 148 137
277 40 34 283 31 289 250 224 222 220 282 18 315 296 187 191 203 203 191 177 176 176 185 186 186 183 181 181 182 181 185 193 197 201 211 213 214 204 193 184 174 159 142 121
166 113 310 255 186 278 318 21 318 149 16 22 359 334 241 203 196 199 191 186 189 193 189 189 183 181 181 180 181 182 189 196 199 209 211 213 208 201 190 177 171 158 147 138
313 107 156 354 249 260 300 324 317 226 52 353 350 345 280 140 152 225 193 186 190 182 183 181 179 179 180 177 182 186 193 201 207 208 210 207 201 200 188 178 169 166 156 147
312 320 210 229 235 280 339 321 315 63 311 331 344 332 295 243 303 227 180 160 158 163 154 162 169 183 181 179 186 190 199 207 208 203 207 197 192 192 184 175 177 173 168 167
273 345 303 85 188 300 348 353 68 274 335 344 339 342 302 251 246 143 148 150 153 158 156 153 188 221 199 198 193 195 203 204 204 198 202 192 185 187 181 180 170 172 173 171
19 150 243 202 195 213 306 165 250 38 1 7 4 4 334 105 166 151 156 159 158 161 172 186 188 195 198 197 196 197 195 197 196 195 198 196 190 175 172 176 174 177 185 183
292 161 224 355 194 258 281 1 323 353 7 2 39 48 102 129 151 143 141 142 158 169 182 189 193 187 187 192 194 203 198 197 197 194 196 194 190 177 165 170 181 185 201 203
228 57 197 249 262 300 279 322 333 334 325 322 5 46 98 145 147 146 153 163 181 194 193 195 193 188 189 187 189 197 198 199 197 198 192 189 186 182 173 173 186 189 181 172
211 209 178 242 208 188 286 329 308 305 305 312 309 27 195 201 199 183 184 186 199 194 191 191 190 187 187 186 186 189 196 202 202 192 184 184 189 177 167 175 190 192 183 191